Aspen, CO

4:27 PM MST on December 14, 2017 (GMT -0700)
Aspen-Pitkin County / Sardy Field

Weather History for KASE - May, 2013

Change the Weather History Date:

Wednesday, May 29, 2013

  Actual Average Record
Temperature  
Mean Temperature 44 °F 52 °F  
Max Temperature 51 °F 68 °F 82 °F (2000)
Min Temperature 36 °F 37 °F 27 °F (2006)
Degree Days  
Heating Degree Days 21 13  
Month to date heating degree days 495 490  
Since 1 July heating degree days 8406 8620  
Cooling Degree Days 0 0  
Month to date cooling degree days 0 0  
Year to date cooling degree days 0 0  
Moisture  
Dew Point 36 °F    
Average Humidity 72    
Maximum Humidity 92    
Minimum Humidity 52    
Precipitation  
Precipitation 0.18 in 0.04 in 0.23 in (2004)
Month to date precipitation 2.06 1.46  
Year to date precipitation 6.67 6.86  
Sea Level Pressure  
Sea Level Pressure 29.71 in    
Wind  
Wind Speed 7 mph (WNW)    
Max Wind Speed 21 mph    
Max Gust Speed 29 mph    
Visibility 10 miles    
Events Rain    
T = Trace of Precipitation, MM = Missing Value Source: NWS Daily Summary

Daily Weather History Graph

Daily Weather History Graph

Search for Another Location

Airport or City:

Trip Planner

Search our weather history database for the weather conditions in past years. The results will help you decide how hot, cold, wet, or windy it might be!

Date:

Astronomy

May. 29, 2013 Rise Set
Actual Time 5:44 AM MDT 8:26 PM MDT
Civil Twilight 5:12 AM MDT 8:57 PM MDT
Nautical Twilight 4:33 AM MDT 9:36 PM MDT
Astronomical Twilight 3:49 AM MDT 10:21 PM MDT
Moon No Moon Rise 10:45 AM MDT (5/29)
Length of Visible Light 15h 44m
Length of Day
14h 41m
Waning Gibbous, 72% of the Moon is Illuminated
May 29
Waning Gibbous
May 31
Last Quarter
Jun 8
New
Jun 16
First Quarter
Jun 23
Full

Hourly Weather History & Observations

Time (MDT) Temp. Windchill Dew Point Humidity Pressure Visibility Wind Dir Wind Speed Gust Speed Precip Events Conditions
12:53 AM 39.0 °F 36.8 °F 30.0 °F 70% 29.57 in 10.0 mi SSW 3.5 mph - N/A   Clear
1:53 AM 43.0 °F - 32.0 °F 65% 29.54 in 10.0 mi Calm Calm - N/A   Mostly Cloudy
2:53 AM 43.0 °F 37.2 °F 36.0 °F 76% 29.55 in 10.0 mi NW 10.4 mph 18.4 mph N/A   Overcast
3:05 AM 41.0 °F 34.7 °F 35.6 °F 81% 29.87 in 10.0 mi NNW 10.4 mph 18.4 mph 0.00 in Rain Light Rain
3:36 AM 37.4 °F - 37.4 °F 100% 29.87 in 9.0 mi Calm Calm - 0.05 in Rain Light Rain
3:53 AM 39.0 °F 34.0 °F 36.0 °F 89% 29.55 in 10.0 mi ESE 6.9 mph - 0.06 in Rain Light Rain
4:04 AM 39.2 °F 32.0 °F 37.4 °F 93% 29.82 in 10.0 mi South 11.5 mph - 0.00 in   Overcast
4:53 AM 39.9 °F 33.9 °F 37.0 °F 89% 29.56 in 10.0 mi SSW 9.2 mph - 0.01 in   Overcast
5:20 AM 39.2 °F 34.2 °F 35.6 °F 87% 29.84 in 10.0 mi WNW 6.9 mph - N/A   Mostly Cloudy
5:29 AM 39.2 °F 35.0 °F 35.6 °F 87% 29.84 in 10.0 mi WNW 5.8 mph - N/A   Overcast
5:53 AM 39.9 °F 37.8 °F 36.0 °F 86% 29.58 in 10.0 mi NNE 3.5 mph - N/A   Overcast
6:01 AM 39.2 °F - 37.4 °F 93% 29.84 in 10.0 mi Calm Calm - N/A   Overcast
6:08 AM 39.2 °F - 37.4 °F 93% 29.84 in 10.0 mi Calm Calm - N/A   Overcast
6:32 AM 39.2 °F - 37.4 °F 93% 29.85 in 10.0 mi Calm Calm - N/A   Overcast
6:43 AM 39.2 °F - 37.4 °F 93% 29.85 in 10.0 mi Calm Calm - N/A   Overcast
6:53 AM 39.0 °F - 37.0 °F 93% 29.58 in 10.0 mi Calm Calm - N/A   Mostly Cloudy
7:15 AM 39.2 °F 37.0 °F 37.4 °F 93% 29.85 in 7.0 mi North 3.5 mph - 0.00 in Rain Light Rain
7:53 AM 41.0 °F 37.1 °F 37.9 °F 89% 29.57 in 10.0 mi North 5.8 mph - 0.00 in   Mostly Cloudy
8:21 AM 42.8 °F 41.1 °F 37.4 °F 81% 29.85 in 10.0 mi NNW 3.5 mph - N/A   Mostly Cloudy
8:53 AM 43.0 °F 38.8 °F 37.0 °F 80% 29.59 in 10.0 mi Variable 6.9 mph - 0.00 in Rain Light Rain
9:53 AM 45.0 °F 40.6 °F 37.0 °F 74% 29.59 in 10.0 mi NW 8.1 mph - 0.00 in   Mostly Cloudy
10:01 AM 44.6 °F 39.2 °F 37.4 °F 76% 29.84 in 10.0 mi NNW 10.4 mph - N/A   Mostly Cloudy
10:53 AM 39.9 °F 32.5 °F 36.0 °F 86% 29.66 in 7.0 mi NNW 12.7 mph - 0.01 in Rain Light Rain
11:53 AM 44.1 °F 40.1 °F 37.9 °F 79% 29.64 in 10.0 mi North 6.9 mph - 0.02 in   Mostly Cloudy
12:27 PM 46.4 °F - 35.6 °F 66% 29.85 in 10.0 mi Calm Calm - N/A   Mostly Cloudy
12:53 PM 46.9 °F - 37.0 °F 68% 29.65 in 10.0 mi Variable 4.6 mph - N/A   Mostly Cloudy
1:53 PM 45.0 °F 37.4 °F 34.0 °F 65% 29.65 in 10.0 mi SW 18.4 mph 25.3 mph 0.00 in Rain Light Rain
2:00 PM 44.6 °F 38.8 °F 33.8 °F 66% 29.85 in 10.0 mi WSW 11.5 mph 25.3 mph 0.00 in Rain Light Rain
2:53 PM 46.9 °F - 33.1 °F 59% 29.63 in 10.0 mi North 8.1 mph 25.3 mph 0.00 in   Mostly Cloudy
3:42 PM 46.4 °F 41.5 °F 35.6 °F 66% 29.85 in 10.0 mi North 10.4 mph - N/A   Overcast
3:53 PM 46.9 °F - 35.1 °F 63% 29.64 in 10.0 mi North 9.2 mph - N/A   Mostly Cloudy
4:53 PM 50.0 °F - 33.1 °F 52% 29.61 in 10.0 mi SW 3.5 mph - N/A   Mostly Cloudy
5:53 PM 46.9 °F - 35.1 °F 63% 29.63 in 10.0 mi WSW 6.9 mph 19.6 mph 0.00 in Rain Light Rain
6:53 PM 44.1 °F 41.5 °F 36.0 °F 73% 29.68 in 9.0 mi South 4.6 mph - 0.00 in Rain Light Rain
7:53 PM 43.0 °F 38.8 °F 36.0 °F 76% 29.70 in 10.0 mi ESE 6.9 mph - 0.08 in   Mostly Cloudy
8:53 PM 41.0 °F 38.0 °F 36.0 °F 82% 29.72 in 10.0 mi SSW 4.6 mph - N/A   Mostly Cloudy
9:53 PM 39.9 °F 35.8 °F 37.0 °F 89% 29.72 in 10.0 mi South 5.8 mph - N/A   Overcast
10:53 PM 39.0 °F 34.8 °F 36.0 °F 89% 29.76 in 10.0 mi West 5.8 mph - N/A   Mostly Cloudy
11:53 PM 37.9 °F 34.4 °F 35.1 °F 89% 29.74 in 10.0 mi WSW 4.6 mph - N/A   Overcast